Location: Banff
(51.1667°N, 115.5667°W)
Time: 13:16:13
(UTC+00:00)

Courier 1B Rocket - Pass Details

Date: 01 December 2020
Orbit: 920 x 1202 km, 28.2° (Epoch: 17 January)

Event Time Altitude Azimuth Distance (km) Brightness Sun altitude
Rises 14:29:58 0° 231° (SW) 4,093 8.0 -8.3°
Reaches altitude 10° 14:35:22 10° 201° (SSW) 3,117 7.7 -7.5°
Maximum altitude 14:37:38 11° 184° (S) 2,995 7.9 -7.2°
Drops below altitude 10° 14:39:54 10° 166° (SSE) 3,090 8.2 -6.9°
Sets 14:45:11 0° 136° (SE) 3,999 9.9 -6.2°
